�������l�o���
Date,Time,MP-1(��Sv/h),MP-2(��Sv/h),MP-3(��Sv/h),MP-4(��Sv/h),MP-5(��Sv/h),MP-6(��Sv/h),MP-7(��Sv/h),����,����(m/s),���J
2021/12/17,00:00,0.160,0.145,0.227,0.223,0.226,0.124,0.080,�k�k��,1.4,��
2021/12/17,00:10,0.160,0.144,0.227,0.224,0.226,0.124,0.079,���k��,1.9,��
2021/12/17,00:20,0.160,0.145,0.227,0.222,0.226,0.123,0.080,���쐼,2.2,��
2021/12/17,00:30,0.159,0.145,0.228,0.223,0.226,0.124,0.079,��,1.5,��
2021/12/17,00:40,0.160,0.145,0.228,0.222,0.227,0.124,0.079,���쐼,2.8,��
2021/12/17,00:50,0.160,0.145,0.227,0.223,0.226,0.124,0.079,���쐼,3.4,��
2021/12/17,01:00,0.159,0.146,0.226,0.224,0.226,0.123,0.080,��,4.0,��
2021/12/17,01:10,0.159,0.145,0.228,0.223,0.226,0.124,0.079,���k��,4.1,��
2021/12/17,01:20,0.161,0.145,0.226,0.222,0.227,0.124,0.079,���k��,3.7,��
2021/12/17,01:30,0.159,0.146,0.227,0.224,0.226,0.124,0.079,���k��,2.7,��
2021/12/17,01:40,0.159,0.145,0.226,0.223,0.227,0.124,0.078,�k��,4.1,��
2021/12/17,01:50,0.159,0.146,0.229,0.222,0.228,0.124,0.080,�k��,2.2,��
2021/12/17,02:00,0.159,0.145,0.227,0.224,0.227,0.124,0.080,-,CALM,��
2021/12/17,02:10,0.159,0.146,0.226,0.223,0.227,0.125,0.079,��,2.8,��
2021/12/17,02:20,0.160,0.144,0.227,0.222,0.227,0.124,0.079,���쐼,4.4,��
2021/12/17,02:30,0.160,0.145,0.227,0.224,0.228,0.124,0.080,���쐼,4.9,��
2021/12/17,02:40,0.159,0.145,0.226,0.224,0.227,0.124,0.080,���쐼,4.8,�L
2021/12/17,02:50,0.160,0.145,0.228,0.222,0.226,0.124,0.079,�쐼,3.7,�L
2021/12/17,03:00,0.160,0.145,0.229,0.225,0.227,0.124,0.079,�쐼,2.9,�L
2021/12/17,03:10,0.159,0.145,0.227,0.222,0.226,0.124,0.080,��쐼,2.7,��
2021/12/17,03:20,0.159,0.146,0.228,0.222,0.227,0.124,0.080,��,2.6,��
2021/12/17,03:30,0.159,0.145,0.228,0.223,0.229,0.124,0.080,��,1.8,��
2021/12/17,03:40,0.160,0.146,0.227,0.223,0.226,0.125,0.079,��쓌,1.5,��
2021/12/17,03:50,0.160,0.146,0.228,0.222,0.226,0.124,0.080,��,1.5,��
2021/12/17,04:00,0.159,0.146,0.229,0.223,0.226,0.124,0.079,��쓌,1.2,��
2021/12/17,04:10,0.160,0.146,0.227,0.223,0.226,0.124,0.080,-,CALM,��
2021/12/17,04:20,0.160,0.145,0.228,0.223,0.229,0.123,0.079,�쐼,1.1,��
2021/12/17,04:30,0.160,0.145,0.228,0.224,0.226,0.124,0.079,��쐼,0.7,��
2021/12/17,04:40,0.160,0.145,0.228,0.223,0.228,0.124,0.079,�쐼,0.8,��
2021/12/17,04:50,0.160,0.145,0.227,0.223,0.227,0.124,0.080,���쐼,2.1,��
2021/12/17,05:00,0.160,0.146,0.228,0.223,0.227,0.125,0.079,���쐼,2.3,��
2021/12/17,05:10,0.159,0.145,0.228,0.222,0.228,0.124,0.080,���쐼,1.2,�L
2021/12/17,05:20,0.159,0.146,0.228,0.223,0.227,0.125,0.080,���쐼,1.2,�L
2021/12/17,05:30,0.160,0.146,0.229,0.224,0.227,0.125,0.082,���쐼,1.2,�L
2021/12/17,05:40,0.162,0.148,0.229,0.226,0.231,0.128,0.083,��,0.7,�L
2021/12/17,05:50,0.162,0.149,0.231,0.226,0.229,0.128,0.083,��,1.0,�L
2021/12/17,06:00,0.164,0.149,0.231,0.227,0.230,0.130,0.085,��쐼,0.9,�L
2021/12/17,06:10,0.163,0.149,0.232,0.227,0.230,0.129,0.085,�쐼,2.4,�L
2021/12/17,06:20,0.163,0.149,0.231,0.227,0.231,0.129,0.085,��쐼,3.0,�L
2021/12/17,06:30,0.163,0.149,0.231,0.226,0.231,0.129,0.084,��쐼,3.6,�L
2021/12/17,06:40,0.164,0.148,0.230,0.227,0.230,0.128,0.084,��쐼,3.3,�L
2021/12/17,06:50,0.165,0.149,0.232,0.226,0.230,0.129,0.085,�쐼,3.7,�L
2021/12/17,07:00,0.165,0.149,0.232,0.229,0.232,0.130,0.085,���쐼,3.5,�L
2021/12/17,07:10,0.167,0.151,0.234,0.230,0.233,0.133,0.088,��,3.8,�L
2021/12/17,07:20,0.168,0.154,0.235,0.231,0.234,0.134,0.089,���k��,3.7,�L
2021/12/17,07:30,0.170,0.156,0.237,0.233,0.237,0.136,0.090,���k��,3.8,�L
2021/12/17,07:40,0.173,0.157,0.239,0.234,0.239,0.140,0.094,�k��,3.3,�L
2021/12/17,07:50,0.174,0.161,0.241,0.235,0.240,0.140,0.095,�k��,2.8,�L
2021/12/17,08:00,0.176,0.162,0.243,0.238,0.241,0.141,0.096,�k��,2.7,�L
2021/12/17,08:10,0.177,0.163,0.244,0.239,0.241,0.144,0.098,�k��,2.7,�L
2021/12/17,08:20,0.175,0.164,0.243,0.239,0.242,0.144,0.098,�k��,2.6,�L
2021/12/17,08:30,0.178,0.165,0.244,0.238,0.242,0.145,0.099,��,2.4,�L
2021/12/17,08:40,0.177,0.164,0.244,0.237,0.242,0.144,0.100,-,CALM,�L
2021/12/17,08:50,0.176,0.165,0.241,0.236,0.241,0.144,0.099,�k,8.2,�L
2021/12/17,09:00,0.177,0.163,0.242,0.235,0.241,0.142,0.098,�k��,5.8,�L
2021/12/17,09:10,0.178,0.163,0.240,0.234,0.241,0.141,0.098,-,CALM,�L
2021/12/17,09:20,0.175,0.164,0.239,0.235,0.240,0.141,0.098,�k��,4.0,�L
2021/12/17,09:30,0.175,0.163,0.237,0.233,0.241,0.141,0.097,-,CALM,�L
2021/12/17,09:40,0.177,0.162,0.238,0.232,0.239,0.140,0.097,�k�k��,4.6,�L
2021/12/17,09:50,0.175,0.161,0.237,0.231,0.239,0.139,0.095,�k��,4.5,�L
2021/12/17,10:00,0.174,0.162,0.236,0.231,0.239,0.139,0.097,�k��,5.6,�L
2021/12/17,10:10,0.174,0.162,0.236,0.231,0.238,0.139,0.096,�k�k��,6.0,�L
2021/12/17,10:20,0.174,0.160,0.235,0.231,0.237,0.139,0.096,�k�k��,6.8,�L
2021/12/17,10:30,0.174,0.160,0.235,0.233,0.238,0.139,0.097,�k�k��,6.6,�L
2021/12/17,10:40,0.174,0.161,0.235,0.231,0.238,0.139,0.097,�k�k��,7.6,�L
2021/12/17,10:50,0.174,0.161,0.235,0.231,0.238,0.140,0.098,�k��,8.8,�L
2021/12/17,11:00,0.173,0.160,0.236,0.230,0.239,0.138,0.098,�k�k��,8.8,�L
2021/12/17,11:10,0.171,0.158,0.234,0.231,0.237,0.139,0.097,�k��,8.1,�L
2021/12/17,11:20,0.171,0.157,0.232,0.228,0.234,0.136,0.094,�k�k��,8.5,�L
2021/12/17,11:30,0.167,0.155,0.230,0.226,0.234,0.133,0.091,�k�k��,8.2,��
2021/12/17,11:40,0.165,0.151,0.229,0.225,0.232,0.130,0.089,�k�k��,7.5,��
2021/12/17,11:50,0.164,0.149,0.227,0.222,0.230,0.128,0.087,�k�k��,7.1,��
2021/12/17,12:00,0.162,0.149,0.224,0.221,0.229,0.128,0.084,�k�k��,6.4,��
2021/12/17,12:10,0.160,0.147,0.224,0.220,0.227,0.126,0.084,�k�k��,5.0,��
2021/12/17,12:20,0.159,0.146,0.223,0.219,0.228,0.124,0.083,�k,4.0,��
2021/12/17,12:30,0.159,0.145,0.222,0.219,0.227,0.124,0.081,�k,3.1,��
2021/12/17,12:40,0.157,0.145,0.222,0.218,0.225,0.123,0.082,�k,3.3,��
2021/12/17,12:50,0.156,0.144,0.222,0.217,0.226,0.123,0.081,�k,3.6,��
2021/12/17,13:00,0.156,0.143,0.222,0.216,0.225,0.121,0.080,�k,3.3,��
2021/12/17,13:10,0.156,0.142,0.221,0.217,0.224,0.120,0.079,�k,4.3,��
2021/12/17,13:20,0.156,0.142,0.220,0.216,0.225,0.121,0.078,�k,4.6,��
2021/12/17,13:30,0.156,0.142,0.219,0.216,0.224,0.121,0.079,�k,4.3,��
2021/12/17,13:40,0.155,0.141,0.220,0.216,0.224,0.120,0.078,�k,3.9,��
2021/12/17,13:50,0.157,0.142,0.220,0.216,0.223,0.121,0.079,�k,4.5,��
2021/12/17,14:00,0.154,0.141,0.219,0.217,0.224,0.121,0.078,�k,3.9,��
2021/12/17,14:10,0.156,0.141,0.221,0.215,0.224,0.120,0.078,�k,2.9,��
2021/12/17,14:20,0.154,0.143,0.220,0.217,0.223,0.120,0.078,�k�k��,4.1,��
2021/12/17,14:30,0.155,0.142,0.220,0.215,0.226,0.120,0.078,�k�k��,2.7,��
2021/12/17,14:40,0.155,0.141,0.220,0.215,0.224,0.120,0.078,�k�k��,1.9,��
2021/12/17,14:50,0.154,0.142,0.219,0.216,0.223,0.119,0.077,�k�k��,1.9,��
2021/12/17,15:00,0.154,0.140,0.220,0.216,0.223,0.121,0.078,�k,1.3,��
2021/12/17,15:10,0.155,0.142,0.221,0.216,0.224,0.120,0.078,���k��,0.6,��
2021/12/17,15:20,0.154,0.142,0.220,0.216,0.224,0.120,0.078,-,CALM,��
2021/12/17,15:30,0.154,0.142,0.220,0.216,0.222,0.120,0.078,���k��,1.5,��
2021/12/17,15:40,0.154,0.142,0.221,0.216,0.224,0.120,0.077,���k��,1.5,��
2021/12/17,15:50,0.154,0.142,0.221,0.216,0.225,0.121,0.077,-,CALM,��
2021/12/17,16:00,0.155,0.141,0.220,0.216,0.223,0.121,0.078,-,CALM,��
2021/12/17,16:10,0.155,0.141,0.220,0.216,0.223,0.121,0.078,-,CALM,��
2021/12/17,16:20,0.155,0.142,0.219,0.216,0.223,0.121,0.078,�k�k��,1.3,��
2021/12/17,16:30,0.155,0.142,0.219,0.216,0.222,0.121,0.077,�k�k��,1.7,��
2021/12/17,16:40,0.155,0.142,0.221,0.215,0.224,0.121,0.078,���k��,0.6,��
2021/12/17,16:50,0.155,0.142,0.220,0.215,0.222,0.121,0.078,-,CALM,��
2021/12/17,17:00,0.154,0.142,0.221,0.216,0.223,0.121,0.078,-,CALM,��
2021/12/17,17:10,0.154,0.142,0.220,0.216,0.223,0.121,0.078,�k��,1.1,��
2021/12/17,17:20,0.155,0.142,0.221,0.216,0.222,0.120,0.077,���k��,2.5,��
2021/12/17,17:30,0.154,0.142,0.220,0.217,0.223,0.120,0.077,�k��,3.1,��
2021/12/17,17:40,0.155,0.141,0.220,0.215,0.223,0.120,0.077,���k��,4.0,��
2021/12/17,17:50,0.155,0.141,0.221,0.216,0.222,0.120,0.077,��,2.6,��
2021/12/17,18:00,0.153,0.141,0.220,0.216,0.224,0.120,0.078,�쐼,1.4,��
2021/12/17,18:10,0.154,0.141,0.219,0.217,0.224,0.120,0.078,��,4.0,��
2021/12/17,18:20,0.156,0.142,0.222,0.216,0.223,0.120,0.078,��,4.9,��
2021/12/17,18:30,0.154,0.141,0.220,0.216,0.224,0.121,0.078,��,5.3,��
2021/12/17,18:40,0.154,0.141,0.220,0.217,0.224,0.121,0.079,��쐼,4.8,��
2021/12/17,18:50,0.155,0.142,0.221,0.216,0.223,0.121,0.078,��,5.1,��
2021/12/17,19:00,0.155,0.141,0.222,0.217,0.223,0.120,0.078,��쐼,4.1,��
2021/12/17,19:10,0.154,0.142,0.220,0.216,0.222,0.121,0.077,��쐼,4.6,��
2021/12/17,19:20,0.155,0.143,0.221,0.216,0.224,0.121,0.078,��,5.0,��
2021/12/17,19:30,0.155,0.142,0.221,0.216,0.223,0.121,0.077,��쐼,5.6,��
2021/12/17,19:40,0.154,0.141,0.220,0.217,0.222,0.121,0.078,��쐼,3.5,��
2021/12/17,19:50,0.154,0.141,0.221,0.216,0.223,0.121,0.077,�k��,5.3,��
2021/12/17,20:00,0.155,0.141,0.220,0.216,0.223,0.121,0.078,���k��,6.7,�L
2021/12/17,20:10,0.157,0.144,0.223,0.219,0.225,0.122,0.079,���k��,7.7,�L
2021/12/17,20:20,0.167,0.155,0.230,0.225,0.230,0.132,0.087,���쐼,17.4,�L
2021/12/17,20:30,0.175,0.161,0.236,0.231,0.237,0.141,0.095,���k��,8.4,�L
2021/12/17,20:40,0.179,0.166,0.241,0.237,0.242,0.147,0.101,�k��,9.6,�L
2021/12/17,20:50,0.181,0.171,0.247,0.241,0.246,0.149,0.105,�k��,9.0,�L
2021/12/17,21:00,0.185,0.173,0.247,0.240,0.249,0.151,0.106,�k��,9.5,�L
2021/12/17,21:10,0.182,0.170,0.245,0.239,0.245,0.147,0.104,�k��,10.6,�L
2021/12/17,21:20,0.178,0.166,0.241,0.235,0.243,0.143,0.100,�k��,11.2,��
2021/12/17,21:30,0.175,0.162,0.238,0.234,0.240,0.140,0.096,�k��,12.8,��
2021/12/17,21:40,0.173,0.160,0.235,0.229,0.237,0.136,0.094,�k��,12.0,�L
2021/12/17,21:50,0.169,0.156,0.231,0.227,0.235,0.134,0.091,�k��,11.5,�L
2021/12/17,22:00,0.166,0.153,0.230,0.224,0.232,0.131,0.089,�k��,13.6,��
2021/12/17,22:10,0.165,0.152,0.228,0.223,0.232,0.130,0.087,�k��,13.3,��
2021/12/17,22:20,0.162,0.150,0.227,0.223,0.231,0.127,0.086,���k��,11.8,��
2021/12/17,22:30,0.162,0.150,0.226,0.221,0.228,0.126,0.084,�k��,14.8,��
2021/12/17,22:40,0.161,0.148,0.226,0.219,0.228,0.126,0.083,�k��,13.4,��
2021/12/17,22:50,0.160,0.147,0.223,0.219,0.228,0.125,0.082,�k��,10.4,��
2021/12/17,23:00,0.159,0.146,0.224,0.219,0.226,0.123,0.081,�k��,12.3,��
2021/12/17,23:10,0.158,0.145,0.224,0.218,0.226,0.123,0.081,�k�k��,12.3,��
2021/12/17,23:20,0.158,0.144,0.221,0.217,0.225,0.123,0.080,�k�k��,13.7,��
2021/12/17,23:30,0.158,0.144,0.222,0.218,0.225,0.122,0.080,�k��,10.9,��
2021/12/17,23:40,0.157,0.143,0.222,0.216,0.225,0.122,0.079,�k��,14.3,��
2021/12/17,23:50,0.156,0.143,0.222,0.217,0.224,0.122,0.079,�k��,10.7,��
